Time,TemperatureF,DewpointF,PressureIn,WindDirection,WindDirectionDegrees,WindSpeedMPH,WindSpeedGustMPH,Humidity,HourlyPrecipIn,Conditions,Clouds,dailyrainin,SoftwareType,DateUTC
2013-05-08 00:00:00,49.3,34.7,30.16,NNW,338,0.0,0.0,57,0.00,,CLR,0.00,VWS V14.01,2013-05-08 04:00:00,
2013-05-08 00:01:00,49.3,34.7,30.16,NNW,338,0.0,0.0,57,0.00,,CLR,0.00,VWS V14.01,2013-05-08 04:01:00,
2013-05-08 00:06:00,49.3,34.7,30.16,NNW,338,0.0,0.0,57,0.00,,CLR,0.00,VWS V14.01,2013-05-08 04:06:00,
2013-05-08 00:11:00,48.9,35.2,30.16,NNW,338,0.0,0.0,59,0.00,,CLR,0.00,VWS V14.01,2013-05-08 04:11:00,
2013-05-08 00:16:00,48.9,35.2,30.16,NNW,338,0.0,0.0,59,0.00,,CLR,0.00,VWS V14.01,2013-05-08 04:16:00,
2013-05-08 00:21:00,48.7,35.1,30.16,NNW,338,0.0,0.0,59,0.00,,CLR,0.00,VWS V14.01,2013-05-08 04:21:00,
2013-05-08 00:26:00,48.4,35.2,30.16,NNW,338,0.0,0.0,60,0.00,,CLR,0.00,VWS V14.01,2013-05-08 04:26:00,
2013-05-08 00:31:00,48.4,35.2,30.16,NNW,338,0.0,0.0,60,0.00,,CLR,0.00,VWS V14.01,2013-05-08 04:31:00,
2013-05-08 00:36:00,48.2,35.4,30.16,NNW,338,0.0,0.0,61,0.00,,CLR,0.00,VWS V14.01,2013-05-08 04:36:00,
2013-05-08 00:41:00,48.2,35.4,30.16,NNW,338,0.0,0.0,61,0.00,,CLR,0.00,VWS V14.01,2013-05-08 04:41:00,
2013-05-08 00:46:00,48.0,35.6,30.16,NNW,338,0.0,0.0,62,0.00,,CLR,0.00,VWS V14.01,2013-05-08 04:46:00,
2013-05-08 00:52:00,47.7,35.7,30.16,NNW,338,0.0,0.0,63,0.00,,CLR,0.00,VWS V14.01,2013-05-08 04:52:00,
2013-05-08 00:57:00,47.7,35.7,30.16,NNW,338,0.0,0.0,63,0.00,,CLR,0.00,VWS V14.01,2013-05-08 04:57:00,
2013-05-08 01:02:00,47.5,35.9,30.16,NNW,339,0.0,0.0,64,0.00,,CLR,0.00,VWS V14.01,2013-05-08 05:02:00,
2013-05-08 01:07:00,47.3,36.2,30.16,NNW,339,0.0,0.0,65,0.00,,CLR,0.00,VWS V14.01,2013-05-08 05:07:00,
2013-05-08 01:12:00,47.1,36.4,30.16,NNW,339,0.0,0.0,66,0.00,,CLR,0.00,VWS V14.01,2013-05-08 05:12:00,
2013-05-08 01:17:00,47.1,37.1,30.16,NNW,339,0.0,0.0,68,0.00,,CLR,0.00,VWS V14.01,2013-05-08 05:17:00,
2013-05-08 01:22:00,46.9,36.9,30.16,NNW,339,0.0,0.0,68,0.00,,CLR,0.00,VWS V14.01,2013-05-08 05:22:00,
2013-05-08 01:27:00,46.9,36.9,30.16,NNW,339,0.0,0.0,68,0.00,,CLR,0.00,VWS V14.01,2013-05-08 05:27:00,
2013-05-08 01:32:00,46.9,36.9,30.16,NNW,345,0.0,0.0,68,0.00,,CLR,0.00,VWS V14.01,2013-05-08 05:32:00,
2013-05-08 01:37:00,46.6,37.0,30.16,NNW,345,0.0,0.0,69,0.00,,CLR,0.00,VWS V14.01,2013-05-08 05:37:00,
2013-05-08 01:42:00,46.6,37.3,30.16,North,357,0.0,0.0,70,0.00,,CLR,0.00,VWS V14.01,2013-05-08 05:42:00,
2013-05-08 01:47:00,46.4,37.5,30.16,North,357,0.0,0.0,71,0.00,,CLR,0.00,VWS V14.01,2013-05-08 05:47:00,
2013-05-08 01:52:00,46.2,37.7,30.16,North,357,0.0,0.0,72,0.00,,CLR,0.00,VWS V14.01,2013-05-08 05:52:00,
2013-05-08 01:57:00,46.2,37.7,30.16,North,0,0.0,0.0,72,0.00,,CLR,0.00,VWS V14.01,2013-05-08 05:57:00,
2013-05-08 02:02:00,46.2,37.7,30.16,North,2,0.0,0.0,72,0.00,,CLR,0.00,VWS V14.01,2013-05-08 06:02:00,
2013-05-08 02:07:00,46.2,37.7,30.16,North,357,0.0,0.0,72,0.00,,CLR,0.00,VWS V14.01,2013-05-08 06:07:00,
2013-05-08 02:12:00,45.9,37.7,30.16,North,2,0.0,0.0,73,0.00,,CLR,0.00,VWS V14.01,2013-05-08 06:12:00,
2013-05-08 02:17:00,45.7,37.9,30.16,North,1,0.0,0.0,74,0.00,,CLR,0.00,VWS V14.01,2013-05-08 06:17:00,
2013-05-08 02:22:00,45.7,37.9,30.16,North,2,0.0,0.0,74,0.00,,CLR,0.00,VWS V14.01,2013-05-08 06:22:00,
2013-05-08 02:27:00,45.3,37.5,30.16,North,2,0.0,0.0,74,0.00,,CLR,0.00,VWS V14.01,2013-05-08 06:27:00,
2013-05-08 02:32:00,45.3,37.9,30.16,North,0,0.0,0.0,75,0.00,,CLR,0.00,VWS V14.01,2013-05-08 06:32:00,
2013-05-08 02:37:00,45.3,37.9,30.16,North,357,0.0,0.0,75,0.00,,CLR,0.00,VWS V14.01,2013-05-08 06:37:00,
2013-05-08 02:42:00,45.3,37.9,30.16,North,357,0.0,0.0,75,0.00,,CLR,0.00,VWS V14.01,2013-05-08 06:42:00,
2013-05-08 02:47:00,45.1,38.0,30.16,North,2,0.0,0.0,76,0.00,,CLR,0.00,VWS V14.01,2013-05-08 06:47:00,
2013-05-08 02:52:00,45.0,38.2,30.16,North,2,0.0,0.0,77,0.00,,CLR,0.00,VWS V14.01,2013-05-08 06:52:00,
2013-05-08 02:57:00,44.8,38.0,30.16,North,2,0.0,0.0,77,0.00,,CLR,0.00,VWS V14.01,2013-05-08 06:57:00,
2013-05-08 03:02:00,44.6,37.8,30.16,North,1,0.0,0.0,77,0.00,,CLR,0.00,VWS V14.01,2013-05-08 07:02:00,
2013-05-08 03:07:00,44.6,37.8,30.16,North,1,0.0,0.0,77,0.00,,CLR,0.00,VWS V14.01,2013-05-08 07:07:00,
2013-05-08 03:12:00,44.1,37.3,30.16,North,0,0.0,0.0,77,0.00,,CLR,0.00,VWS V14.01,2013-05-08 07:12:00,
2013-05-08 03:17:00,43.9,37.2,30.16,North,0,0.0,0.0,77,0.00,,CLR,0.00,VWS V14.01,2013-05-08 07:17:00,
2013-05-08 03:22:00,43.9,37.2,30.16,North,1,0.0,0.0,77,0.00,,CLR,0.00,VWS V14.01,2013-05-08 07:22:00,
2013-05-08 03:28:00,43.7,37.0,30.16,North,357,0.0,0.0,77,0.00,,CLR,0.00,VWS V14.01,2013-05-08 07:28:00,
2013-05-08 03:33:00,43.5,37.1,30.16,North,357,0.0,0.0,78,0.00,,CLR,0.00,VWS V14.01,2013-05-08 07:33:00,
2013-05-08 03:38:00,43.5,37.1,30.16,North,0,0.0,0.0,78,0.00,,CLR,0.00,VWS V14.01,2013-05-08 07:38:00,
2013-05-08 03:43:00,43.3,37.3,30.16,North,357,0.0,0.0,79,0.00,,CLR,0.00,VWS V14.01,2013-05-08 07:43:00,
2013-05-08 03:48:00,43.3,37.3,30.16,North,357,0.0,0.0,79,0.00,,CLR,0.00,VWS V14.01,2013-05-08 07:48:00,
2013-05-08 03:53:00,43.0,36.9,30.16,North,0,0.0,0.0,79,0.00,,CLR,0.00,VWS V14.01,2013-05-08 07:53:00,
2013-05-08 03:58:00,43.0,36.9,30.16,North,2,0.0,0.0,79,0.00,,CLR,0.00,VWS V14.01,2013-05-08 07:58:00,
2013-05-08 04:03:00,43.0,37.2,30.16,North,2,0.0,0.0,80,0.00,,CLR,0.00,VWS V14.01,2013-05-08 08:03:00,
2013-05-08 04:08:00,42.8,37.1,30.16,North,357,0.0,0.0,80,0.00,,CLR,0.00,VWS V14.01,2013-05-08 08:08:00,
2013-05-08 04:13:00,42.8,37.1,30.16,NNW,343,0.0,0.0,80,0.00,,CLR,0.00,VWS V14.01,2013-05-08 08:13:00,
2013-05-08 04:18:00,42.4,37.3,30.16,NNW,343,0.0,0.0,82,0.00,,CLR,0.00,VWS V14.01,2013-05-08 08:18:00,
2013-05-08 04:23:00,42.4,37.3,30.16,NNW,343,0.0,0.0,82,0.00,,CLR,0.00,VWS V14.01,2013-05-08 08:23:00,
2013-05-08 04:28:00,42.3,37.2,30.16,NNW,343,0.0,0.0,82,0.00,,CLR,0.00,VWS V14.01,2013-05-08 08:28:00,
2013-05-08 04:33:00,42.3,37.2,30.16,NNW,343,0.0,0.0,82,0.00,,CLR,0.00,VWS V14.01,2013-05-08 08:33:00,
2013-05-08 04:38:00,42.3,37.2,30.16,NNW,343,0.0,0.0,82,0.00,,CLR,0.00,VWS V14.01,2013-05-08 08:38:00,
2013-05-08 04:43:00,42.3,37.2,30.16,NNW,343,0.0,0.0,82,0.00,,CLR,0.00,VWS V14.01,2013-05-08 08:43:00,
2013-05-08 04:48:00,42.1,37.3,30.16,NNW,343,0.0,0.0,83,0.00,,CLR,0.00,VWS V14.01,2013-05-08 08:48:00,
2013-05-08 04:53:00,41.7,37.0,30.16,NNW,343,0.0,0.0,83,0.00,,CLR,0.00,VWS V14.01,2013-05-08 08:53:00,
2013-05-08 04:58:00,41.7,37.0,30.16,NNW,343,0.0,0.0,83,0.00,,CLR,0.00,VWS V14.01,2013-05-08 08:58:00,
2013-05-08 05:03:00,41.7,37.0,30.16,NNW,343,0.0,0.0,83,0.00,,CLR,0.00,VWS V14.01,2013-05-08 09:03:00,
2013-05-08 05:08:00,41.5,37.1,30.16,North,353,0.0,0.0,84,0.00,,CLR,0.00,VWS V14.01,2013-05-08 09:08:00,
2013-05-08 05:13:00,41.5,37.1,30.16,North,353,0.0,0.0,84,0.00,,CLR,0.00,VWS V14.01,2013-05-08 09:13:00,
2013-05-08 05:18:00,41.4,36.9,30.16,North,353,0.0,0.0,84,0.00,,CLR,0.00,VWS V14.01,2013-05-08 09:18:00,
2013-05-08 05:23:00,41.2,36.7,30.16,North,353,0.0,0.0,84,0.00,,CLR,0.00,VWS V14.01,2013-05-08 09:23:00,
2013-05-08 05:28:00,41.2,36.7,30.16,North,353,0.0,0.0,84,0.00,,CLR,0.00,VWS V14.01,2013-05-08 09:28:00,
2013-05-08 05:33:00,41.2,37.0,30.16,North,353,0.0,0.0,85,0.00,,CLR,0.00,VWS V14.01,2013-05-08 09:33:00,
2013-05-08 05:38:00,41.2,37.0,30.16,North,353,0.0,0.0,85,0.00,,CLR,0.00,VWS V14.01,2013-05-08 09:38:00,
2013-05-08 05:43:00,41.2,37.0,30.16,North,353,0.0,0.0,85,0.00,,CLR,0.00,VWS V14.01,2013-05-08 09:43:00,
2013-05-08 05:48:00,41.0,36.8,30.16,North,353,0.0,0.0,85,0.00,,CLR,0.00,VWS V14.01,2013-05-08 09:48:00,
2013-05-08 05:53:00,41.2,37.3,30.16,NNW,348,0.0,0.0,86,0.00,,CLR,0.00,VWS V14.01,2013-05-08 09:53:00,
2013-05-08 05:58:00,41.2,37.3,30.16,NNW,348,0.0,0.0,86,0.00,,CLR,0.00,VWS V14.01,2013-05-08 09:58:00,
2013-05-08 06:03:00,41.2,37.3,30.16,North,357,0.0,0.0,86,0.00,,CLR,0.00,VWS V14.01,2013-05-08 10:03:00,
2013-05-08 06:08:00,41.4,37.5,30.16,North,357,0.0,0.0,86,0.00,,CLR,0.00,VWS V14.01,2013-05-08 10:08:00,
2013-05-08 06:13:00,41.4,37.5,30.16,North,357,0.0,0.0,86,0.00,,CLR,0.00,VWS V14.01,2013-05-08 10:13:00,
2013-05-08 06:18:00,41.7,38.1,30.16,North,357,0.0,0.0,87,0.00,,CLR,0.00,VWS V14.01,2013-05-08 10:18:00,
2013-05-08 06:23:00,42.1,38.8,30.16,NNW,344,0.0,0.0,88,0.00,,CLR,0.00,VWS V14.01,2013-05-08 10:23:00,
2013-05-08 06:29:00,42.3,39.0,30.16,North,357,0.0,0.0,88,0.00,,CLR,0.00,VWS V14.01,2013-05-08 10:29:00,
2013-05-08 06:34:00,42.3,39.0,30.16,North,6,0.0,0.0,88,0.00,,CLR,0.00,VWS V14.01,2013-05-08 10:34:00,
2013-05-08 06:39:00,42.8,39.8,30.16,North,6,0.0,0.0,89,0.00,,CLR,0.00,VWS V14.01,2013-05-08 10:39:00,
2013-05-08 06:44:00,42.8,39.8,30.16,North,6,0.0,0.0,89,0.00,,CLR,0.00,VWS V14.01,2013-05-08 10:44:00,
2013-05-08 06:49:00,43.3,40.6,30.16,North,6,0.0,0.0,90,0.00,,CLR,0.00,VWS V14.01,2013-05-08 10:49:00,
2013-05-08 06:54:00,44.1,41.6,30.16,North,6,0.0,0.0,91,0.00,,CLR,0.00,VWS V14.01,2013-05-08 10:54:00,
2013-05-08 06:59:00,44.1,41.6,30.16,North,6,0.0,0.0,91,0.00,,CLR,0.00,VWS V14.01,2013-05-08 10:59:00,
2013-05-08 07:04:00,45.1,42.7,30.16,North,6,0.0,0.0,91,0.00,,CLR,0.00,VWS V14.01,2013-05-08 11:04:00,
2013-05-08 07:09:00,45.1,42.7,30.16,North,6,0.0,0.0,91,0.00,,CLR,0.00,VWS V14.01,2013-05-08 11:09:00,
2013-05-08 07:14:00,46.4,44.2,30.16,North,6,0.0,0.0,92,0.00,,CLR,0.00,VWS V14.01,2013-05-08 11:14:00,
2013-05-08 07:19:00,46.4,44.2,30.16,North,6,0.0,0.0,92,0.00,,CLR,0.00,VWS V14.01,2013-05-08 11:19:00,
2013-05-08 07:24:00,47.7,45.5,30.16,North,6,0.0,0.0,92,0.00,,CLR,0.00,VWS V14.01,2013-05-08 11:24:00,
2013-05-08 07:29:00,49.1,46.9,30.16,North,6,0.0,0.0,92,0.00,,CLR,0.00,VWS V14.01,2013-05-08 11:29:00,
2013-05-08 07:34:00,49.1,46.9,30.16,North,6,0.0,0.0,92,0.00,,CLR,0.00,VWS V14.01,2013-05-08 11:34:00,
2013-05-08 07:39:00,51.4,49.5,30.16,North,6,0.0,0.0,93,0.00,,CLR,0.00,VWS V14.01,2013-05-08 11:39:00,
2013-05-08 07:44:00,51.4,49.5,30.16,North,6,0.0,0.0,93,0.00,,CLR,0.00,VWS V14.01,2013-05-08 11:44:00,
2013-05-08 07:49:00,54.3,51.8,30.16,North,6,0.0,0.0,91,0.00,,CLR,0.00,VWS V14.01,2013-05-08 11:49:00,
2013-05-08 07:54:00,56.8,53.6,30.16,North,6,0.0,0.0,89,0.00,,CLR,0.00,VWS V14.01,2013-05-08 11:54:00,
2013-05-08 07:59:00,58.1,54.6,30.16,North,6,0.0,0.0,88,0.00,,CLR,0.00,VWS V14.01,2013-05-08 11:59:00,
2013-05-08 08:04:00,58.3,53.8,30.16,North,6,0.0,0.0,85,0.00,,CLR,0.00,VWS V14.01,2013-05-08 12:04:00,
2013-05-08 08:09:00,58.3,53.8,30.16,North,6,0.0,0.0,85,0.00,,CLR,0.00,VWS V14.01,2013-05-08 12:09:00,
2013-05-08 08:14:00,57.7,52.6,30.16,North,6,0.0,0.0,83,0.00,,CLR,0.00,VWS V14.01,2013-05-08 12:14:00,
2013-05-08 08:19:00,57.7,52.6,30.16,North,6,0.0,0.0,83,0.00,,CLR,0.00,VWS V14.01,2013-05-08 12:19:00,
2013-05-08 08:24:00,59.9,54.4,30.16,West,274,0.0,0.0,82,0.00,,CLR,0.00,VWS V14.01,2013-05-08 12:24:00,
2013-05-08 08:29:00,61.0,55.1,30.16,NW,305,0.0,0.0,81,0.00,,CLR,0.00,VWS V14.01,2013-05-08 12:29:00,
2013-05-08 08:34:00,61.3,54.8,30.16,NW,305,0.0,0.0,79,0.00,,CLR,0.00,VWS V14.01,2013-05-08 12:34:00,
2013-05-08 08:39:00,62.2,54.6,30.16,NW,305,0.0,0.0,76,0.00,,CLR,0.00,VWS V14.01,2013-05-08 12:39:00,
2013-05-08 08:44:00,62.2,54.6,30.16,NW,305,0.0,0.0,76,0.00,,CLR,0.00,VWS V14.01,2013-05-08 12:44:00,
2013-05-08 08:49:00,62.8,53.2,30.16,South,179,0.0,0.0,71,0.00,,CLR,0.00,VWS V14.01,2013-05-08 12:49:00,
2013-05-08 08:54:00,63.0,51.8,30.16,SSE,165,0.0,0.0,67,0.00,,CLR,0.00,VWS V14.01,2013-05-08 12:54:00,
2013-05-08 08:59:00,63.0,51.0,30.16,SSE,165,0.0,0.0,65,0.00,,CLR,0.00,VWS V14.01,2013-05-08 12:59:00,
2013-05-08 09:04:00,63.0,49.8,30.16,SSE,165,0.0,0.0,62,0.00,,CLR,0.00,VWS V14.01,2013-05-08 13:04:00,
2013-05-08 09:10:00,63.0,48.9,30.16,NNE,19,0.0,0.0,60,0.00,,CLR,0.00,VWS V14.01,2013-05-08 13:10:00,
2013-05-08 09:15:00,63.0,48.4,30.16,NNE,19,0.0,0.0,59,0.00,,CLR,0.00,VWS V14.01,2013-05-08 13:15:00,
2013-05-08 09:20:00,63.0,48.4,30.16,NNE,19,0.0,0.0,59,0.00,,CLR,0.00,VWS V14.01,2013-05-08 13:20:00,
2013-05-08 09:25:00,63.3,47.4,30.16,South,185,0.0,0.0,56,0.00,,CLR,0.00,VWS V14.01,2013-05-08 13:25:00,
2013-05-08 09:30:00,64.0,47.6,30.16,South,179,0.0,0.0,55,0.00,,CLR,0.00,VWS V14.01,2013-05-08 13:30:00,
2013-05-08 09:35:00,64.2,47.7,30.16,ENE,78,0.0,0.0,55,0.00,,CLR,0.00,VWS V14.01,2013-05-08 13:35:00,
2013-05-08 09:40:00,64.4,47.9,30.16,South,177,0.0,0.0,55,0.00,,CLR,0.00,VWS V14.01,2013-05-08 13:40:00,
2013-05-08 09:45:00,64.8,47.8,30.16,South,180,0.0,0.0,54,0.00,,CLR,0.00,VWS V14.01,2013-05-08 13:45:00,
2013-05-08 09:50:00,64.8,47.2,30.16,South,189,0.0,0.0,53,0.00,,CLR,0.00,VWS V14.01,2013-05-08 13:50:00,
2013-05-08 09:55:00,64.9,46.9,30.16,ESE,114,0.0,0.0,52,0.00,,CLR,0.00,VWS V14.01,2013-05-08 13:55:00,
2013-05-08 10:00:00,64.9,46.9,30.16,East,96,0.0,0.0,52,0.00,,CLR,0.00,VWS V14.01,2013-05-08 14:00:00,
2013-05-08 10:05:00,65.3,47.2,30.16,ESE,120,0.0,0.0,52,0.00,,CLR,0.00,VWS V14.01,2013-05-08 14:05:00,
2013-05-08 10:10:00,65.3,47.2,30.16,SSW,213,0.0,0.0,52,0.00,,CLR,0.00,VWS V14.01,2013-05-08 14:10:00,
2013-05-08 10:15:00,65.3,47.2,30.16,South,177,0.0,0.0,52,0.00,,CLR,0.00,VWS V14.01,2013-05-08 14:15:00,
2013-05-08 10:20:00,66.0,47.4,30.16,South,172,0.0,0.0,51,0.00,,CLR,0.00,VWS V14.01,2013-05-08 14:20:00,
2013-05-08 10:25:00,67.3,48.0,30.16,SSE,167,0.0,0.0,50,0.00,,CLR,0.00,VWS V14.01,2013-05-08 14:25:00,
2013-05-08 10:30:00,68.5,47.5,30.16,SSE,162,5.8,5.8,47,0.00,,CLR,0.00,VWS V14.01,2013-05-08 14:30:00,
2013-05-08 10:35:00,68.5,47.5,30.16,South,184,3.1,3.1,47,0.00,,CLR,0.00,VWS V14.01,2013-05-08 14:35:00,
2013-05-08 10:40:00,69.8,46.3,30.16,SSE,162,2.2,2.2,43,0.00,,CLR,0.00,VWS V14.01,2013-05-08 14:40:00,
2013-05-08 10:45:00,70.2,45.4,30.16,SSE,156,5.4,5.4,41,0.00,,BKN110,0.00,VWS V14.01,2013-05-08 14:45:00,
2013-05-08 10:50:00,70.0,44.6,30.16,SSE,157,7.6,7.6,40,0.00,,BKN110,0.00,VWS V14.01,2013-05-08 14:50:00,
2013-05-08 10:55:00,69.3,43.9,30.16,NNE,28,8.3,8.3,40,0.00,,BKN110,0.00,VWS V14.01,2013-05-08 14:55:00,
2013-05-08 11:00:00,69.3,43.9,30.16,SE,140,3.1,3.6,40,0.00,,BKN110,0.00,VWS V14.01,2013-05-08 15:00:00,
2013-05-08 11:05:00,70.3,44.2,30.16,SSE,166,8.1,8.1,39,0.00,,BKN110,0.00,VWS V14.01,2013-05-08 15:05:00,
2013-05-08 11:10:00,70.7,44.5,30.16,SSW,193,0.0,0.0,39,0.00,,BKN110,0.00,VWS V14.01,2013-05-08 15:10:00,
2013-05-08 11:15:00,70.7,44.5,30.16,East,100,3.6,3.6,39,0.00,,BKN110,0.00,VWS V14.01,2013-05-08 15:15:00,
2013-05-08 11:20:00,70.7,44.5,30.16,South,175,3.1,3.1,39,0.00,,BKN110,0.00,VWS V14.01,2013-05-08 15:20:00,
2013-05-08 11:25:00,72.3,43.2,30.16,NE,48,8.7,8.7,35,0.00,,BKN110,0.00,VWS V14.01,2013-05-08 15:25:00,
2013-05-08 11:30:00,70.5,43.0,30.16,ESE,111,4.9,6.3,37,0.00,,BKN110,0.00,VWS V14.01,2013-05-08 15:30:00,
2013-05-08 11:36:00,70.3,42.9,30.16,SSE,158,3.1,3.1,37,0.00,,BKN110,0.00,VWS V14.01,2013-05-08 15:36:00,
2013-05-08 11:41:00,70.3,44.2,30.16,SSE,164,5.8,5.8,39,0.00,,FEW120,0.00,VWS V14.01,2013-05-08 15:41:00,
2013-05-08 11:46:00,70.0,43.9,30.16,SE,146,2.7,3.1,39,0.00,,FEW120,0.00,VWS V14.01,2013-05-08 15:46:00,
2013-05-08 11:51:00,69.8,43.8,30.16,SSE,162,0.0,0.0,39,0.00,,FEW120,0.00,VWS V14.01,2013-05-08 15:51:00,
2013-05-08 11:56:00,69.8,43.8,30.16,SE,145,2.7,2.7,39,0.00,,FEW120,0.00,VWS V14.01,2013-05-08 15:56:00,
2013-05-08 12:01:00,69.8,43.8,30.16,South,181,6.3,6.3,39,0.00,,FEW120,0.00,VWS V14.01,2013-05-08 16:01:00,
2013-05-08 12:06:00,70.5,43.7,30.16,SSE,160,3.6,3.6,38,0.00,,FEW120,0.00,VWS V14.01,2013-05-08 16:06:00,
2013-05-08 12:11:00,70.5,43.7,30.16,ESE,106,0.0,3.6,38,0.00,,FEW120,0.00,VWS V14.01,2013-05-08 16:11:00,
2013-05-08 12:16:00,70.5,43.7,30.16,South,178,0.0,3.6,38,0.00,,FEW120,0.00,VWS V14.01,2013-05-08 16:16:00,
2013-05-08 12:21:00,70.7,43.2,30.16,ESE,103,0.0,0.0,37,0.00,,FEW120,0.00,VWS V14.01,2013-05-08 16:21:00,
2013-05-08 12:26:00,70.3,42.2,30.16,SE,141,5.4,5.4,36,0.00,,FEW120,0.00,VWS V14.01,2013-05-08 16:26:00,
2013-05-08 12:31:00,70.3,42.2,30.16,South,179,3.1,3.1,36,0.00,,FEW120,0.00,VWS V14.01,2013-05-08 16:31:00,
2013-05-08 12:36:00,70.3,42.2,30.16,NE,41,0.0,3.1,36,0.00,,FEW120,0.00,VWS V14.01,2013-05-08 16:36:00,
2013-05-08 12:41:00,71.1,42.8,30.16,SE,139,0.0,0.0,36,0.00,,SCT120,0.00,VWS V14.01,2013-05-08 16:41:00,
2013-05-08 12:46:00,71.1,42.8,30.16,South,177,2.7,2.7,36,0.00,,SCT120,0.00,VWS V14.01,2013-05-08 16:46:00,
2013-05-08 12:51:00,71.1,42.8,30.16,SSE,158,2.7,2.7,36,0.00,,SCT120,0.00,VWS V14.01,2013-05-08 16:51:00,
2013-05-08 12:56:00,72.1,42.2,30.16,NNW,339,3.1,3.1,34,0.00,,SCT120,0.00,VWS V14.01,2013-05-08 16:56:00,
2013-05-08 13:01:00,72.1,42.2,30.16,South,171,3.6,3.6,34,0.00,,SCT120,0.00,VWS V14.01,2013-05-08 17:01:00,
2013-05-08 13:06:00,72.9,42.1,30.16,SSW,192,3.1,3.1,33,0.00,,SCT120,0.00,VWS V14.01,2013-05-08 17:06:00,
2013-05-08 13:11:00,72.9,42.1,30.16,SSE,150,2.7,2.7,33,0.00,,SCT120,0.00,VWS V14.01,2013-05-08 17:11:00,
2013-05-08 13:16:00,72.1,41.5,30.16,SSE,155,3.6,3.6,33,0.00,,SCT120,0.00,VWS V14.01,2013-05-08 17:16:00,
2013-05-08 13:21:00,72.1,41.5,30.16,SE,125,3.1,3.1,33,0.00,,SCT120,0.00,VWS V14.01,2013-05-08 17:21:00,
2013-05-08 13:26:00,72.1,41.5,30.16,NNW,341,0.0,0.0,33,0.00,,SCT120,0.00,VWS V14.01,2013-05-08 17:26:00,
2013-05-08 13:31:00,72.0,41.3,30.16,East,89,3.1,3.1,33,0.00,,SCT120,0.00,VWS V14.01,2013-05-08 17:31:00,
2013-05-08 13:36:00,72.0,41.3,30.16,SSE,150,5.4,5.4,33,0.00,,SCT120,0.00,VWS V14.01,2013-05-08 17:36:00,
2013-05-08 13:41:00,72.0,41.3,30.16,SE,130,0.0,0.0,33,0.00,,CLR,0.00,VWS V14.01,2013-05-08 17:41:00,
2013-05-08 13:46:00,72.0,41.3,30.16,SSE,157,5.8,5.8,33,0.00,,CLR,0.00,VWS V14.01,2013-05-08 17:46:00,
2013-05-08 13:51:00,70.2,42.0,30.16,SSE,148,0.0,0.0,36,0.00,,CLR,0.00,VWS V14.01,2013-05-08 17:51:00,
2013-05-08 13:56:00,70.2,42.0,30.16,South,174,0.0,0.0,36,0.00,,CLR,0.00,VWS V14.01,2013-05-08 17:56:00,
2013-05-08 14:01:00,69.6,44.2,30.16,East,94,0.0,0.0,40,0.00,,CLR,0.00,VWS V14.01,2013-05-08 18:01:00,
2013-05-08 14:06:00,69.6,44.2,30.16,ESE,115,4.9,5.4,40,0.00,,CLR,0.00,VWS V14.01,2013-05-08 18:06:00,
2013-05-08 14:12:00,69.8,43.1,30.16,South,190,6.3,6.3,38,0.00,,CLR,0.00,VWS V14.01,2013-05-08 18:12:00,
2013-05-08 14:17:00,69.8,43.1,30.16,SSE,152,0.0,0.0,38,0.00,,CLR,0.00,VWS V14.01,2013-05-08 18:17:00,
2013-05-08 14:22:00,69.8,43.1,30.16,ESE,119,0.0,0.0,38,0.00,,CLR,0.00,VWS V14.01,2013-05-08 18:22:00,
2013-05-08 14:27:00,69.8,43.1,30.16,SSE,151,0.0,0.0,38,0.00,,CLR,0.00,VWS V14.01,2013-05-08 18:27:00,
2013-05-08 14:32:00,69.8,43.1,30.16,South,173,5.8,5.8,38,0.00,,CLR,0.00,VWS V14.01,2013-05-08 18:32:00,
2013-05-08 14:37:00,69.8,43.1,30.16,SSW,195,5.8,5.8,38,0.00,,CLR,0.00,VWS V14.01,2013-05-08 18:37:00,
2013-05-08 14:42:00,69.8,43.1,30.16,SSE,156,4.0,4.0,38,0.00,,BKN100,0.00,VWS V14.01,2013-05-08 18:42:00,
2013-05-08 14:47:00,70.2,43.4,30.16,South,190,0.0,0.0,38,0.00,,BKN100,0.00,VWS V14.01,2013-05-08 18:47:00,
2013-05-08 14:52:00,70.5,43.7,30.16,SE,125,0.0,0.0,38,0.00,,BKN100,0.00,VWS V14.01,2013-05-08 18:52:00,
2013-05-08 14:57:00,70.5,43.7,30.16,NNW,329,0.0,0.0,38,0.00,,BKN100,0.00,VWS V14.01,2013-05-08 18:57:00,
2013-05-08 15:02:00,71.1,42.8,30.16,NNW,329,4.0,4.0,36,0.00,,BKN100,0.00,VWS V14.01,2013-05-08 19:02:00,
2013-05-08 15:07:00,71.1,42.8,30.16,North,353,2.7,3.6,36,0.00,,BKN100,0.00,VWS V14.01,2013-05-08 19:07:00,
2013-05-08 15:12:00,71.1,42.8,30.16,East,82,0.0,0.0,36,0.00,,BKN100,0.00,VWS V14.01,2013-05-08 19:12:00,
2013-05-08 15:17:00,69.6,42.2,30.16,NE,48,3.6,3.6,37,0.00,,BKN100,0.00,VWS V14.01,2013-05-08 19:17:00,
2013-05-08 15:22:00,69.3,42.6,30.16,SSE,163,5.4,5.4,38,0.00,,BKN100,0.00,VWS V14.01,2013-05-08 19:22:00,
2013-05-08 15:27:00,69.3,42.6,30.16,SE,144,4.0,4.0,38,0.00,,BKN100,0.00,VWS V14.01,2013-05-08 19:27:00,
2013-05-08 15:32:00,69.4,43.4,30.16,South,173,3.6,3.6,39,0.00,,BKN100,0.00,VWS V14.01,2013-05-08 19:32:00,
2013-05-08 15:37:00,69.4,42.8,30.16,SSE,150,2.2,2.2,38,0.00,,BKN100,0.00,VWS V14.01,2013-05-08 19:37:00,
2013-05-08 15:42:00,69.4,42.8,30.10,East,86,0.0,0.0,38,0.00,,BKN110,0.00,VWS V14.01,2013-05-08 19:42:00,
2013-05-08 15:47:00,69.4,42.8,30.10,ESE,111,2.7,2.7,38,0.00,,BKN110,0.00,VWS V14.01,2013-05-08 19:47:00,
2013-05-08 15:52:00,69.3,42.6,30.10,SE,129,2.7,2.7,38,0.00,,BKN110,0.00,VWS V14.01,2013-05-08 19:52:00,
2013-05-08 15:57:00,69.3,42.6,30.10,SE,145,5.4,9.6,38,0.00,,BKN110,0.00,VWS V14.01,2013-05-08 19:57:00,
2013-05-08 16:02:00,68.2,43.6,30.10,South,188,6.3,6.3,41,0.00,,BKN110,0.00,VWS V14.01,2013-05-08 20:02:00,
2013-05-08 16:07:00,66.7,44.8,30.10,South,174,0.0,0.0,45,0.00,,BKN110,0.00,VWS V14.01,2013-05-08 20:07:00,
2013-05-08 16:12:00,66.0,45.8,30.10,ESE,116,4.0,4.0,48,0.00,,BKN110,0.00,VWS V14.01,2013-05-08 20:12:00,
2013-05-08 16:17:00,65.8,45.6,30.10,East,83,0.0,4.0,48,0.00,,BKN110,0.00,VWS V14.01,2013-05-08 20:17:00,
2013-05-08 16:22:00,65.8,45.6,30.10,SSE,153,0.0,0.0,48,0.00,,BKN110,0.00,VWS V14.01,2013-05-08 20:22:00,
2013-05-08 16:27:00,65.3,46.2,30.10,SSW,196,3.1,3.1,50,0.00,,BKN110,0.00,VWS V14.01,2013-05-08 20:27:00,
2013-05-08 16:32:00,65.3,46.2,30.10,South,187,3.1,3.1,50,0.00,,BKN110,0.00,VWS V14.01,2013-05-08 20:32:00,
2013-05-08 16:37:00,65.1,46.0,30.10,SSE,167,2.7,7.6,50,0.00,,BKN110,0.00,VWS V14.01,2013-05-08 20:37:00,
2013-05-08 16:42:00,65.1,46.0,30.10,SSE,158,2.2,2.2,50,0.00,,OVC075,0.00,VWS V14.01,2013-05-08 20:42:00,
2013-05-08 16:48:00,64.8,46.7,30.10,SSW,195,3.1,3.1,52,0.00,,OVC075,0.00,VWS V14.01,2013-05-08 20:48:00,
2013-05-08 16:53:00,64.8,46.7,30.10,SSE,158,0.0,2.7,52,0.00,,OVC075,0.00,VWS V14.01,2013-05-08 20:53:00,
2013-05-08 16:58:00,64.8,46.7,30.10,SE,140,0.0,0.0,52,0.00,,OVC075,0.00,VWS V14.01,2013-05-08 20:58:00,
2013-05-08 17:03:00,64.2,47.7,30.10,NNW,334,0.0,0.0,55,0.00,,OVC075,0.00,VWS V14.01,2013-05-08 21:03:00,
2013-05-08 17:08:00,64.2,47.7,30.10,NNW,334,0.0,0.0,55,0.00,,OVC075,0.00,VWS V14.01,2013-05-08 21:08:00,
2013-05-08 17:13:00,64.2,48.7,30.10,NNW,334,0.0,0.0,57,0.00,,OVC075,0.00,VWS V14.01,2013-05-08 21:13:00,
2013-05-08 17:18:00,64.2,48.7,30.10,ESE,112,0.0,0.0,57,0.00,,OVC075,0.00,VWS V14.01,2013-05-08 21:18:00,
2013-05-08 17:23:00,64.2,48.7,30.10,NNE,23,0.0,0.0,57,0.00,,OVC075,0.00,VWS V14.01,2013-05-08 21:23:00,
2013-05-08 17:28:00,64.2,48.7,30.10,NNE,23,0.0,0.0,57,0.00,,OVC075,0.00,VWS V14.01,2013-05-08 21:28:00,
2013-05-08 17:33:00,64.2,48.7,30.10,NNE,23,0.0,0.0,57,0.00,,OVC075,0.00,VWS V14.01,2013-05-08 21:33:00,
2013-05-08 17:38:00,64.2,48.7,30.10,North,8,0.0,0.0,57,0.00,,OVC075,0.00,VWS V14.01,2013-05-08 21:38:00,
2013-05-08 17:43:00,64.2,48.7,30.10,North,6,3.6,3.6,57,0.00,,RA,0.00,VWS V14.01,2013-05-08 21:43:00,
2013-05-08 17:48:00,65.3,50.2,30.10,NNE,21,0.0,0.0,58,0.00,,RA,0.00,VWS V14.01,2013-05-08 21:48:00,
2013-05-08 17:53:00,65.5,50.3,30.10,NNE,18,2.2,2.2,58,0.00,,RA,0.00,VWS V14.01,2013-05-08 21:53:00,
2013-05-08 17:58:00,65.7,50.5,30.10,NW,320,0.0,0.0,58,0.00,,RA,0.00,VWS V14.01,2013-05-08 21:58:00,
2013-05-08 18:03:00,65.5,49.9,30.10,NW,321,2.2,2.2,57,0.00,,RA,0.00,VWS V14.01,2013-05-08 22:03:00,
2013-05-08 18:08:00,65.5,49.4,30.10,WNW,301,0.0,0.0,56,0.00,,RA,0.00,VWS V14.01,2013-05-08 22:08:00,
2013-05-08 18:13:00,65.5,49.9,30.10,NNE,24,0.0,0.0,57,0.00,,RA,0.00,VWS V14.01,2013-05-08 22:13:00,
2013-05-08 18:18:00,65.5,49.9,30.10,NNW,331,2.7,2.7,57,0.00,,RA,0.00,VWS V14.01,2013-05-08 22:18:00,
2013-05-08 18:23:00,65.5,49.9,30.10,North,353,4.0,4.0,57,0.00,,RA,0.00,VWS V14.01,2013-05-08 22:23:00,
2013-05-08 18:28:00,65.5,49.4,30.10,North,10,0.0,2.7,56,0.00,,RA,0.00,VWS V14.01,2013-05-08 22:28:00,
2013-05-08 18:33:00,65.7,50.0,30.10,North,0,3.1,3.1,57,0.00,,RA,0.00,VWS V14.01,2013-05-08 22:33:00,
2013-05-08 18:38:00,65.5,50.3,30.10,North,353,0.0,0.0,58,0.00,,RA,0.00,VWS V14.01,2013-05-08 22:38:00,
2013-05-08 18:43:00,65.5,50.3,30.10,North,1,3.6,3.6,58,0.00,,OVC085,0.00,VWS V14.01,2013-05-08 22:43:00,
2013-05-08 18:48:00,65.5,50.3,30.10,NNW,333,4.9,4.9,58,0.00,,OVC085,0.00,VWS V14.01,2013-05-08 22:48:00,
2013-05-08 18:53:00,65.1,52.2,30.10,East,79,2.7,4.9,63,0.00,,OVC085,0.00,VWS V14.01,2013-05-08 22:53:00,
2013-05-08 18:58:00,64.9,51.6,30.07,NNE,33,6.3,6.3,62,0.00,,OVC085,0.00,VWS V14.01,2013-05-08 22:58:00,
2013-05-08 19:03:00,64.9,51.6,30.07,North,2,3.6,3.6,62,0.00,,OVC085,0.00,VWS V14.01,2013-05-08 23:03:00,
2013-05-08 19:09:00,63.9,51.0,30.07,NE,35,4.0,4.0,63,0.00,,OVC085,0.00,VWS V14.01,2013-05-08 23:09:00,
2013-05-08 19:14:00,63.3,51.4,30.07,North,2,2.7,2.7,65,0.00,,OVC085,0.00,VWS V14.01,2013-05-08 23:14:00,
2013-05-08 19:19:00,62.6,51.5,30.07,North,353,4.0,4.0,67,0.00,,OVC085,0.00,VWS V14.01,2013-05-08 23:19:00,
2013-05-08 19:24:00,62.6,51.5,30.07,North,353,4.0,4.0,67,0.00,,OVC085,0.00,VWS V14.01,2013-05-08 23:24:00,
2013-05-08 19:29:00,62.6,51.5,30.07,North,353,0.0,0.0,67,0.00,,OVC085,0.00,VWS V14.01,2013-05-08 23:29:00,
2013-05-08 19:34:00,62.6,51.5,30.07,NE,35,4.5,4.5,67,0.00,,OVC085,0.00,VWS V14.01,2013-05-08 23:34:00,
2013-05-08 19:39:00,61.7,52.6,30.07,NNE,19,0.0,0.0,72,0.00,,OVC085,0.00,VWS V14.01,2013-05-08 23:39:00,
2013-05-08 19:44:00,61.3,52.6,30.07,North,4,0.0,0.0,73,0.00,,RA,0.00,VWS V14.01,2013-05-08 23:44:00,
2013-05-08 19:49:00,60.8,53.2,30.07,North,4,0.0,0.0,76,0.00,,RA,0.00,VWS V14.01,2013-05-08 23:49:00,
2013-05-08 19:54:00,60.8,53.2,30.07,North,4,0.0,0.0,76,0.08,,RA,0.08,VWS V14.01,2013-05-08 23:54:00,
2013-05-08 19:59:00,60.8,53.2,30.07,North,4,0.0,0.0,76,0.08,,RA,0.08,VWS V14.01,2013-05-08 23:59:00,
2013-05-08 20:04:00,60.8,53.2,30.07,North,4,0.0,0.0,76,0.08,,RA,0.08,VWS V14.01,2013-05-09 00:04:00,
2013-05-08 20:09:00,59.5,52.3,30.07,North,357,0.0,0.0,77,0.12,,RA,0.12,VWS V14.01,2013-05-09 00:09:00,
2013-05-08 20:14:00,59.5,52.3,30.07,NNW,346,0.0,0.0,77,0.12,,OVC080,0.12,VWS V14.01,2013-05-09 00:14:00,
2013-05-08 20:19:00,59.0,52.8,30.07,NW,308,0.0,0.0,80,0.12,,OVC080,0.12,VWS V14.01,2013-05-09 00:19:00,
2013-05-08 20:24:00,59.0,52.8,30.07,NW,323,0.0,0.0,80,0.12,,OVC080,0.12,VWS V14.01,2013-05-09 00:24:00,
2013-05-08 20:29:00,58.8,53.3,30.07,NW,322,0.0,0.0,82,0.12,,OVC080,0.12,VWS V14.01,2013-05-09 00:29:00,
2013-05-08 20:34:00,58.8,53.3,30.07,NW,323,0.0,0.0,82,0.12,,OVC080,0.12,VWS V14.01,2013-05-09 00:34:00,
2013-05-08 20:39:00,58.6,53.5,30.07,NW,322,0.0,0.0,83,0.16,,OVC080,0.16,VWS V14.01,2013-05-09 00:39:00,
2013-05-08 20:44:00,58.6,53.5,30.07,NNW,336,0.0,0.0,83,0.16,,OVC080,0.16,VWS V14.01,2013-05-09 00:44:00,
2013-05-08 20:49:00,58.5,54.0,30.07,North,0,0.0,0.0,85,0.16,,OVC080,0.16,VWS V14.01,2013-05-09 00:49:00,
2013-05-08 20:54:00,58.5,54.6,30.07,NNW,336,0.0,0.0,87,0.08,,OVC080,0.16,VWS V14.01,2013-05-09 00:54:00,
2013-05-08 20:59:00,58.5,54.6,30.07,North,357,0.0,0.0,87,0.08,,OVC080,0.16,VWS V14.01,2013-05-09 00:59:00,
2013-05-08 21:04:00,58.6,55.4,30.07,NNW,329,0.0,0.0,89,0.08,,OVC080,0.16,VWS V14.01,2013-05-09 01:04:00,
2013-05-08 21:09:00,58.6,55.4,30.07,NNW,342,4.0,4.0,89,0.04,,OVC080,0.16,VWS V14.01,2013-05-09 01:09:00,
2013-05-08 21:14:00,58.6,56.0,30.07,North,11,0.0,0.0,91,0.04,,OVC080,0.16,VWS V14.01,2013-05-09 01:14:00,
2013-05-08 21:19:00,58.8,56.5,30.07,North,5,2.7,2.7,92,0.04,,OVC080,0.16,VWS V14.01,2013-05-09 01:19:00,
2013-05-08 21:24:00,58.6,56.3,30.07,NNW,344,2.2,2.7,92,0.04,,OVC080,0.16,VWS V14.01,2013-05-09 01:24:00,
2013-05-08 21:29:00,58.6,56.3,30.07,NNW,341,0.0,0.0,92,0.04,,OVC080,0.16,VWS V14.01,2013-05-09 01:29:00,
2013-05-08 21:34:00,58.6,56.3,30.07,North,6,4.9,4.9,92,0.04,,OVC080,0.16,VWS V14.01,2013-05-09 01:34:00,
2013-05-08 21:39:00,58.6,56.3,30.07,NNE,22,0.0,0.0,92,0.00,,OVC080,0.16,VWS V14.01,2013-05-09 01:39:00,
2013-05-08 21:44:00,58.6,56.3,30.07,NW,321,0.0,0.0,92,0.00,,-RA,0.16,VWS V14.01,2013-05-09 01:44:00,
2013-05-08 21:50:00,58.6,56.6,30.07,North,3,0.0,0.0,93,0.00,,-RA,0.16,VWS V14.01,2013-05-09 01:50:00,
2013-05-08 21:55:00,58.6,56.6,30.07,NNW,327,0.0,0.0,93,0.00,,-RA,0.16,VWS V14.01,2013-05-09 01:55:00,
2013-05-08 22:00:00,58.6,56.6,30.07,NNW,342,0.0,0.0,93,0.00,,-RA,0.16,VWS V14.01,2013-05-09 02:00:00,
2013-05-08 22:05:00,58.6,56.6,30.07,NNE,15,0.0,0.0,93,0.00,,-RA,0.16,VWS V14.01,2013-05-09 02:05:00,
2013-05-08 22:10:00,58.5,56.5,30.07,NNW,330,0.0,0.0,93,0.00,,-RA,0.16,VWS V14.01,2013-05-09 02:10:00,
2013-05-08 22:15:00,58.5,56.5,30.07,North,5,4.0,4.0,93,0.00,,-RA,0.16,VWS V14.01,2013-05-09 02:15:00,
2013-05-08 22:20:00,58.5,56.5,30.07,NNE,23,5.8,5.8,93,0.00,,-RA,0.16,VWS V14.01,2013-05-09 02:20:00,
2013-05-08 22:25:00,58.5,56.7,30.07,NW,309,0.0,0.0,94,0.00,,-RA,0.16,VWS V14.01,2013-05-09 02:25:00,
2013-05-08 22:30:00,58.5,56.7,30.07,NNW,332,0.0,0.0,94,0.00,,-RA,0.16,VWS V14.01,2013-05-09 02:30:00,
2013-05-08 22:35:00,58.5,56.7,30.07,NNW,341,0.0,2.2,94,0.00,,-RA,0.16,VWS V14.01,2013-05-09 02:35:00,
2013-05-08 22:40:00,58.5,56.7,30.07,NNE,16,2.7,2.7,94,0.00,,-RA,0.16,VWS V14.01,2013-05-09 02:40:00,
2013-05-08 22:45:00,58.5,56.7,30.07,NNW,339,4.0,4.0,94,0.00,,OVC090,0.16,VWS V14.01,2013-05-09 02:45:00,
2013-05-08 22:50:00,58.5,56.7,30.07,North,0,0.0,0.0,94,0.00,,OVC090,0.16,VWS V14.01,2013-05-09 02:50:00,
2013-05-08 22:55:00,58.5,56.7,30.07,North,353,0.0,0.0,94,0.00,,OVC090,0.16,VWS V14.01,2013-05-09 02:55:00,
2013-05-08 23:00:00,58.3,56.6,30.07,North,6,0.0,0.0,94,0.00,,OVC090,0.16,VWS V14.01,2013-05-09 03:00:00,
2013-05-08 23:05:00,58.3,56.6,30.07,North,5,0.0,0.0,94,0.00,,OVC090,0.16,VWS V14.01,2013-05-09 03:05:00,
2013-05-08 23:10:00,58.3,56.6,30.07,North,5,0.0,0.0,94,0.00,,OVC090,0.16,VWS V14.01,2013-05-09 03:10:00,
2013-05-08 23:15:00,58.1,56.4,30.07,North,5,0.0,0.0,94,0.00,,OVC090,0.16,VWS V14.01,2013-05-09 03:15:00,
2013-05-08 23:20:00,58.1,56.4,30.07,North,5,0.0,0.0,94,0.00,,OVC090,0.16,VWS V14.01,2013-05-09 03:20:00,
2013-05-08 23:25:00,57.9,56.2,30.04,North,5,0.0,0.0,94,0.00,,OVC090,0.16,VWS V14.01,2013-05-09 03:25:00,
2013-05-08 23:30:00,57.9,56.2,30.04,North,5,0.0,0.0,94,0.00,,OVC090,0.16,VWS V14.01,2013-05-09 03:30:00,
2013-05-08 23:35:00,57.7,56.0,30.04,North,5,0.0,0.0,94,0.00,,OVC090,0.16,VWS V14.01,2013-05-09 03:35:00,
2013-05-08 23:40:00,57.6,55.8,30.04,North,5,0.0,0.0,94,0.00,,BKN100,0.16,VWS V14.01,2013-05-09 03:40:00,
2013-05-08 23:45:00,57.6,55.8,30.04,North,5,0.0,0.0,94,0.00,,BKN100,0.16,VWS V14.01,2013-05-09 03:45:00,
2013-05-08 23:50:00,57.4,55.7,30.04,North,5,0.0,0.0,94,0.00,,BKN100,0.16,VWS V14.01,2013-05-09 03:50:00,
2013-05-08 23:55:00,57.4,55.7,30.04,North,5,0.0,0.0,94,0.00,,BKN100,0.16,VWS V14.01,2013-05-09 03:55:00,